www.pogodaiklimat.ru

Погода и климат >> Архив погоды >> Россия >> Крым >> Алушта


АРХИВ ПОГОДЫ в Алуште

Время (UTC), дата Ветер
(напр.,м/с)
 
Видим.   Явления Облачность Т
(С)
Тd
(С)
f
(%)
Тe
(С)
Тes
(С)
Комфортность P
(гПа)
Po
(гПа)
Тmin
(С)
Tmax
(С)
R
(мм)
R24
(мм)
S
(см)
21 15.09 СЗ 2 20 км ясно +17.7 +4.6 42 +18 +18 по сезону 1022.2 1013.3
00 16.09 СЗ 1 20 км ясно +15.6 +2.7 42 +16 +16 по сезону 1022.3 1013.3
03 16.09 СЗ 2 50 км ясно +17.6 -0.8 29 +18 +18 по сезону 1019.7 1010.8 +15.4
06 16.09 В 1 50 км ясно +21.7 -1.0 22 +21 +25 комфорт 1019.5 1010.7 +15.4
09 16.09 Ю 1 50 км 3/0
[Ci fib]
+23.0 +7.9 38 +24 +35 комфорт 1019.4 1010.7
12 16.09 Ю 2 50 км ясно +22.8 +9.6 43 +24 +32 комфорт 1018.0 1009.3
15 16.09 Ю 2 50 км ясно +22.0 +11.4 51 +24 +25 комфорт 1015.4 1006.7
18 16.09 С 2 20 км ясно +18.3 +7.1 48 +19 +19 тепло 1015.5 1006.7 +23.3
21 16.09 З 1 20 км ясно +17.7 +5.6 45 +19 +19 тепло 1015.6 1006.7
00 17.09 С 2 20 км ясно +16.2 +2.9 41 +16 +16 по сезону 1014.2 1005.3
03 17.09 СЗ 2 50 км 3/0
[Ci sp]
+17.9 +2.8 36 +18 +18 по сезону 1013.1 1004.3 +16.0
06 17.09 Ю 4 50 км 1/0
[Ci sp]
+21.9 +11.1 50 +24 +26 комфорт 1013.0 1004.3 +16.0
09 17.09 Ю 4 50 км 8/0
[Ac trans Cc]
+24.4 +15.3 57 +27 +32 жарко 1012.4 1003.8
12 17.09 Ю 2 50 км 9/1 1500 м
[Cb calv Ac As Ci sp]
+25.6 +13.1 46 +28 +31 жарко 1011.3 1002.8
15 17.09 Ю 4 50 км 9/3 1500 м
[Cu Sc Ac lent Cc]
+23.0 +17.5 71 +28 +28 душно 1011.3 1002.7
18 17.09 З 2 20 км 9/0
[Ac lent Ci sp]
+21.3 +16.0 72 +25 +25 комфорт 1011.1 1002.5 +27.2
21 17.09 СЗ 2 20 км 9/0
[Ac lent Ci sp]
+22.6 +12.8 54 +25 +25 комфорт 1012.7 1004.0
00 18.09 СЗ 4 20 км 9/0
[Ac lent Ci sp]
+22.2 +9.7 45 +24 +24 комфорт 1012.7 1004.0
03 18.09 З 1 50 км 4/0
[Ac lent]
+20.3 +11.1 55 +23 +23 комфорт 1011.1 1002.4 +20.0
06 18.09 ЮЗ 6 20 км ясно +23.3 +17.3 69 +29 +30 душно 1011.3 1002.7 +19.1
09 18.09 Ю 7-12
{13}
20 км 4/1 1500 м
[Cu hum Ci sp]
+25.5 +18.7 66 +30 +32 душно 1011.3 1002.7
12 18.09 СЗ 3
{12}
20 км 6/0
[Ac lent]
+26.9 +13.4 43 +29 +32 жарко 1009.6 1001.1
15 18.09 З 9-15
{17}
50 км 5/0
[Ac lent]
+22.5 +7.9 39 +24 +24 комфорт 1011.3 1002.7
18 18.09 СЗ 5-12
{19}
20 км 8/3 1500 м
[Sc Ac lent]
+20.0 +3.1 33 +20 +20 тепло 1014.6 1005.9 +28.8
21 18.09 З 6-11
{12}
20 км 9/4 1500 м
[Sc Ac lent]
+17.4 +3.5 40 +17 +17 по сезону 1018.0 1009.2
00 19.09 З 11-15
{17}
20 км 6/0
[Ac lent]
+16.4 +0.5 34 +15 +15 по сезону 1018.2 1009.3
03 19.09 СЗ 8-13
{17}
50 км 4/1 1500 м
[Sc Ac trans]
+14.8 -0.8 34 +13 +13 холодно 1019.7 1010.8 +14.4
06 19.09 З 4
{13}
50 км 6/3 1500 м
[Sc Ac trans Ci sp]
+18.8 +0.4 29 +19 +20 по сезону 1020.9 1012.0 +14.4
09 19.09 З 2 50 км 9/6 1500 м
[Sc Ac trans]
+19.3 +0.3 28 +20 +21 по сезону 1022.2 1013.3
12 19.09 Ю 2 50 км 6/4 1500 м
[Sc Ac trans]
+19.5 +3.6 35 +20 +23 по сезону 1022.2 1013.3
15 19.09 Ю 1 50 км 8/6 1500 м
[Cb calv Ac trans]
+18.2 +8.5 53 +19 +20 по сезону 1022.2 1013.3
18 19.09 СЗ 1 20 км 9/6 1500 м
[Cb calv Ac trans Ci sp]
+15.9 +8.4 61 +17 +17 по сезону 1020.6 1011.7 +20.2
21 19.09 СЗ 1 20 км 10/6 1500 м
[Cb calv Ac trans Ci sp]
+15.4 +8.4 63 +16 +16 по сезону 1021.0 1012.0
00 20.09 СЗ 1 4000 м слаб. ливневой дождь 10/10 1500 м
[Cb calv]
+15.5 +8.9 65 +16 +16 по сезону 1020.1 1011.2
03 20.09 З 2 20 км в посл. час ливневой дождь 9/9 1500 м
[Cb calv]
+14.3 +5.9 57 +14 +14 прохладно 1019.7 1010.7 +14.3 0.1
06 20.09 З 4 20 км слаб. ливневой дождь 10/10 1500 м
[Cb calv]
+11.1 +6.4 73 +9 +9 очень
холодно
1019.8 1010.7 +11.1 0.5
09 20.09 СЗ 2 10 км ливневой дождь 10/10 1500 м
[Cb calv]
+11.4 +9.7 89 +10 +10 очень
холодно
1019.8 1010.7
12 20.09 З 2 20 км слаб. ливневой дождь 10/8 1500 м
[Cb calv Ac As]
+12.2 +9.2 82 +11 +12 очень
холодно
1017.6 1008.6
15 20.09 СЗ 1 50 км {ливн. осадки} 9/8 1500 м
[Cb calv Ac lent]
+13.8 +7.6 66 +14 +14 холодно 1017.6 1008.7 5
18 20.09 СЗ 2 20 км {ливн. осадки} 3/0
[Ac trans]
+12.2 +6.7 69 +11 +11 холодно 1018.7 1009.7 +13.8 5
21 20.09 СЗ 2 20 км 3/3 1500 м
[Sc Ac trans]
+11.2 +5.4 67 +10 +10 холодно 1018.9 1009.9
00 21.09 З 2 20 км 3/0
[Ac trans]
+11.1 +4.1 62 +10 +10 холодно 1019.8 1010.7
03 21.09 З 6-11
{11}
20 км 5/3 1500 м
[Cb calv Ac lent]
+11.8 +2.9 54 +9 +9 очень
холодно
1019.0 1010.0 +10.8
06 21.09 СЗ 6-14
{13}
50 км 8/4 1500 м
[Cu Sc Ac lent]
+11.9 +1.4 49 +9 +10 очень
холодно
1020.8 1011.8 +10.8
09 21.09 СЗ 6-12
{14}
50 км 6/4 1500 м
[Cu Sc Ac lent]
+15.3 -1.3 32 +14 +16 холодно 1022.3 1013.3
12 21.09 СЗ 5-12
{14}
50 км 5/5 1500 м
[Cu Sc]
+16.2 -0.8 31 +15 +17 холодно 1021.6 1012.7
15 21.09 З 6-12
{13}
50 км 3/3 1500 м
[Sc diur, vesp]
+14.0 -1.8 34 +12 +12 очень
холодно
1022.4 1013.4
18 21.09 СЗ 5-10
{13}
20 км ясно +11.8 -0.8 42 +10 +10 очень
холодно
1024.6 1015.5 +16.8
21 21.09 СЗ 3
{10}
20 км ясно +11.0 -2.1 40 +10 +10 холодно 1025.2 1016.0
00 22.09 С 1 20 км ясно +11.0 -0.5 45 +11 +11 холодно 1025.2 1016.0
03 22.09 З 3 50 км 3/0
[Ac lent]
+12.2 -0.1 43 +11 +11 холодно 1024.2 1015.1 +10.6
06 22.09 Ю 2 50 км 4/3 1500 м
[Sc Ac lent]
+16.8 +2.8 39 +17 +19 прохладно 1023.9 1015.0 +10.6
09 22.09 В 1 50 км 6 баллов +20.3 +8.6 47 +23 +27 комфорт 1023.6 1014.7
12 22.09 Ю 1 50 км 4 балла +20.8 +7.1 41 +23 +28 комфорт 1023.5 1014.7
15 22.09 СЗ 2 50 км 2 балла +19.0 +6.1 43 +20 +20 по сезону 1020.9 1012.0

 

Местоположение метеостанции Алушта (Крым, Россия): широта 44.67 долгота 34.40 высота над уровнем моря 75 м.

В архиве по умолчанию представлена погода в Алуште за последнюю неделю. Архивные данные за месяц целиком и за предыдущие месяцы, начиная с января 2011 года, Вы можете получить, выбрав интересующий диапазон дат из раскрывающегося списка и нажав кнопку "Ввод!".


*Определитесь, кто Вы:
робот инопланетянин человек

Внимание! Время в таблицах - всемирное. Для получения местного времени необходимо прибавить поправку, которая равна 3 ч.

Смотрите также архив погоды в соседних городах и на ближайших метеорологических станциях:

Погода на Ангарском Перевале (Крым, Россия) (10 км)
Погода в Никитском саду (Крым, Россия) (20 км)
Погода в Ялте (Крым, Россия) (28 км)
Погода на Ай-Петри (Крым, Россия) (34 км)
Погода в Симферополе город (Крым, Россия) (38 км)
Погода в Почтовом (Крым, Россия) (40 км)
Погода в Белогорске (Крым, Россия) (45 км)
Погода в Симферополе (Крым, Россия) (52 км)
Погода в Карадаге (Крым, Россия) (68 км)
Погода в Севастополе (город Севастополь, Россия) (69 км)

Пояснения к столбцам:

Ветер - указаны скорость ветра в м/с - средняя за 10 мин, порывы в срок и между сроками (в фигурных скобках) и направление, откуда дует ветер: С - северный, СВ - северо-восточный, В - восточный, ЮВ - юго-восточный, Ю - южный, ЮЗ - юго-западный, З - западный, СЗ - северо-западный.
Видимость - горизонтальная дальность видимости в метрах или километрах. При видимости от 1 до 10 км при отсутствии осадков обычно наблюдается дымка, при ухудшении видимости до 1 км и менее - туман. В сухую погоду видимость может ухудшаться дымом, пылью или мглою.
Явления - указаны атмосферные явления, наблюдавшиеся в срок или в последний час перед сроком; фигурными скобками обозначены явления, наблюдавшиеся между сроками (за 1-3 часа до срока); квадратными скобками обозначены град или гололедные отложения с указанием их диаметра в мм.
Облачность - указаны через наклонную черту общая и нижняя облачность в баллах и высота нижней границы облаков в метрах; квадратными скобками обозначены формы облаков: Ci - перистые, Cs - перисто-слоистые, Cc - перисто-кучевые, Ac - высококучевые, As - высокослоистые, Sc - слоисто-кучевые, Ns - слоисто-дождевые, Cu - кучевые, Cb - кучево-дождевые. Подробнее классификацию облаков см. в Атласе облаков (PDF).
T - Температура воздуха - температура, измеренная на высоте 2 м над землей.
Td - Температура точки росы - температура, при понижении до которой содержащийся в воздухе водяной пар достигнет насыщения.
f - Относительная влажность воздуха - влажноcть воздуха, измеренная на высоте 2 м над землей.
Te - Эффективная температура - температура, которую ощущает одетый по сезону человек в тени. Характеристика душности погоды. При расчете учитывается влияние влажности воздуха и скорости ветра на теплоощущения человека.
Tes - Эффективная температура на солнце - температура, которую ощущает человек, с поправкой на солнечный нагрев. Характеристика знойности погоды. Зависит от высоты солнца над горизонтом, облачности и скорости ветра. Ночью, в пасмурную погоду, а также при ветре 12 м/с и более поправка равна нулю.
P - Атмосферное давление - приведенное к уровню моря атмосферное давление.
Po - Атмосферное давление - измеренное на уровне метеостанции атмосферное давление.
Tmin - Минимальная температура - минимум температуры воздуха на высоте 2 м над землей.
Tmax - Максимальная температура - максимум температуры воздуха на высоте 2 м над землей.
R - Количество осадков - Количество выпавших осадков за период времени, мм. При наведении курсора мыши на число - период времени, за который выпало указанное количество осадков.
R24 - Количество осадков - Количество выпавших осадков за 24 часа, мм.
S - Снежный покров - Высота снежного покрова, см. При наведении курсора мыши на число - состояние снежного покрова и степень покрытия местности в баллах.